Flag for Switzerland Weather past 2 weeks in Arth, Schwyz, Switzerland

Now
68 °F

Partly sunny.


Feels Like: 68 °F
Forecast: 40 / 58 °F
Wind: 12 mph from Northwest

Location: Altdorf

Current Time: May 30, 2015 at 3:21:49 PM

Latest Report: May 30, 2015 at 2:00 PM


Visibility: 13 mi

Pressure: 29.97 "Hg

Humidity: 55%

Dew point: 51 °F

Location of ArthLocation

Historic Weather in Arth — Graph

°F

Arth temperature yesterday

Maximum temperature yesterday: 73 °F (at 6:00 PM)
Minimum temperature yesterday: 50 °F (at 3:00 AM)
Average temperature yesterday: 62 °F

Past Weeks' High & Low Weather Summary

 TemperatureHumidityPressure
High73 °F (May 18, 6:00 PM)94% (May 25, 6:40 AM)30.34 "Hg (May 25, 6:40 AM)
Low42 °F (May 15, 5:00 PM)38% (May 28, 7:00 PM)29.72 "Hg (May 18, 6:00 PM)
Average54 °F77%30.07 "Hg
* Reported May 15 2:00 PM — May 30 2:00 PM, Arth, Weather by CustomWeather, © 2015

Note: Actual official high and low records may vary slightly from our data, if they occured in-between our weather recording intervals... More about our weather records

Advertising

Arth weather history for previous 24 hours

 ConditionsComfort  
Time TempWeatherWind HumidityBarometerVisibility
2:00 PM
Sat, May 30
68 °FPartly sunny.12 mph55%29.97 "Hg12 mi
1:00 PM65 °FMild.12 mph62%29.98 "HgN/A
12:00 PM64 °FMild.13 mph60%29.99 "HgN/A
11:00 AM64 °FPartly sunny.8 mph67%29.99 "Hg12 mi
10:00 AM61 °FCool.5 mph78%30.00 "HgN/A
9:00 AM59 °FCool.2 mph88%30.00 "HgN/A
8:00 AM56 °FOvercast.1 mph91%30.01 "Hg9 mi
7:00 AM56 °FCool.1 mph93%30.00 "HgN/A
6:00 AM56 °FCool.1 mph92%30.00 "HgN/A
4:00 AM55 °FCool.3 mph94%29.99 "HgN/A
3:00 AM56 °FCool.3 mph92%29.98 "HgN/A
2:00 AM56 °FLight rain. Overcast.5 mph88%29.96 "Hg9 mi
1:00 AM57 °FCool.2 mph81%29.91 "HgN/A
12:00 AM59 °FCool.2 mph74%29.91 "HgN/A
11:00 PM
Fri, May 29
61 °FOvercast.7 mph69%29.90 "Hg9 mi
10:00 PM64 °FMild.10 mph56%29.87 "HgN/A
9:00 PM65 °FMild.12 mph58%29.84 "HgN/A
8:00 PM67 °FOvercast.13 mph51%29.82 "Hg16 mi
7:00 PM68 °FMild.6 mph56%29.80 "HgN/A
6:00 PM73 °FMild.1 mph42%29.78 "HgN/A
5:00 PM72 °FPartly sunny.3 mph43%29.79 "Hg16 mi
4:00 PM72 °FMild.8 mph40%29.80 "HgN/A
3:00 PM71 °FMild.10 mph40%29.80 "HgN/A
Weather by CustomWeather, © 2015

See weather overviewHow to use our weather pages